Weather in Dakhla

Morocco     23°42′26″N   15°55′35″W
temp.,
°C
wind,
m/s
gust,
m/s
humid.,
%
clouds,
%
prec.,
mm/h
press.,
hPa
HPBL,
m
20 april, tue
tue2000:00+19nne1116860 0.0 1015387
03:00+18nne914890 0.0 1013398
06:00+18nne1014880 0.0 1014449
09:00+18ne1014840 0.0 1015465
12:00+18nne1013840 0.0 1014403
15:00+19nne1013860 0.0 1013310
18:00+19nne1015850 0.0 1012335
21:00+19nne1117820 0.0 1014446
21 april, wed
wed2100:00+19nne1118840 0.0 1014469
03:00+18nne1118840 0.0 1012451
06:00+18nne1116880 0.0 1013535
09:00+18ne1116870 0.0 1015588
12:00+18nne1114870 0.0 1015512
15:00+19nne913850 0.0 1013361
18:00+19nne914850 0.0 1013400
21:00+19nne1014840 0.0 1014396
22 april, thu
thu2200:00+18nne1015860 0.0 1015469
03:00+18nne1015890 0.0 1014555
06:00+18ne913890 0.0 1014595
09:00+18ne912850 0.0 1015573
12:00+18nne810850 0.0 1015339
15:00+19n912860 0.0 1013311
18:00+19n812870 0.0 1013298
21:00+19nne914890 0.0 1015380
23 april, fri
fri2300:00+19nne914890 0.0 1015405
03:00+18nne812900 0.0 1013427
06:00+18ne711910 0.0 1013402
09:00+18ne69910 0.0 1014327
12:00+19n67890 0.0 1015187
15:00+19n710890 0.0 1013279
18:00+19n710885 0.0 1013268
21:00+19n68880 0.0 1014170
24 april, sat
sat2400:00+19nne69880 0.0 1014196
03:00+19nne69900 0.0 1012227
06:00+19nne69943 0.0 1012300
09:00+19n689248 0.0 1013280
12:00+19n68860 0.1 1014351
15:00+19n68835 0.0 1013360
18:00+19n588339 0.0 1013308
21:00+19n57855 0.0 1014178